Regional Weather Roundup
Issued by NWS

Home | Current Version | Previous Version | Graphics & Text | Print | Product List | Glossary On
Versions: 1 2 3 4 5 6 7 8 9 10 11 12 13 14 15 16 17 18 19 20 21 22 23 24 25 26 27 28 29 30 31 32 33 34 35 36 37 38 39 40 41 42 43 44 45 46 47 48 49 50
033
ASUS45 KBOU 211907
RWRCO

WEATHER ROUNDUP FOR COLORADO
NATIONAL WEATHER SERVICE DENVER/BOULDER CO
100 PM MDT SUN MAY 21 2017

NOTE: "FAIR" INDICATES FEW OR NO CLOUDS BELOW 12000 FEET WITH NO
SIGNIFICANT WEATHER AND/OR OBSTRUCTIONS TO VISIBILITY.

COZ001>005-013-030-031-212000-
...NORTHWEST COLORADO...

CITY           SKY/WX    TMP DP  RH WIND       PRES   REMARKS
CRAIG          CLOUDY    62  32  32 W9        30.19F
HAYDEN         FAIR      55  28  35 S6        30.21S
MEEKER         CLOUDY    58  29  33 S6        30.22R
RABBIT EARS PA CLOUDY    34  32  93 SW6       30.35S WCI  29
STEAMBOAT SPGS FAIR      55  34  45 W7        30.22F
WALDEN           N/A     50  32  50 N9        30.27S
$$

COZ006>008-011-212000-
...WEST CENTRAL VALLEYS...

CITY           SKY/WX    TMP DP  RH WIND       PRES   REMARKS
GRAND JUNCTION PTSUNNY   68  27  21 W7        30.15F
MONTROSE       FAIR      64  24  21 E3        30.19F
EAGLE          PTSUNNY   61  27  27 CALM      30.23F
RIFLE          FAIR      65  26  23 W13G18    30.18F
DELTA          PTSUNNY   72  22  15 NE3       30.16F
NUCLA          FAIR      68  27  21 NW7       30.23S
$$

COZ017>023-064>068-212000-
...SOUTHWEST COLORADO...

CITY           SKY/WX    TMP DP  RH WIND       PRES   REMARKS
DURANGO        FAIR      65  24  21 SW7       30.21F
CORTEZ         FAIR      69  31  24 MISG      30.19F
PAGOSA SPRINGS FAIR      60  16  17 S5        30.25F
TELLURIDE      FAIR      55  21  27 NW6G16    30.33S
WOLF CREEK PAS FAIR      37  19  48 W8        30.47S
$$

COZ009-010-012-014-032>034-037-058>063-212000-
...CENTRAL COLORADO...

CITY           SKY/WX    TMP DP  RH WIND       PRES   REMARKS
ASPEN          PTSUNNY   55  24  30 W7        30.24F
BUENA VISTA    FAIR      57  16  20 NE10      30.24F
COPPER MTN     CLOUDY    37  23  56 NW9       30.41S
BERTHOUD PASS  LGT SNOW  28  18  64 NW13      30.41S WCI  18
COTTONWOOD PAS CLOUDY    52  18  25 NE3       30.31F
GUNNISON       FAIR      58  24  27 VRB5      30.25F
KREMMLING      CLOUDY    55  32  41 NW7       30.26F
LEADVILLE      CLOUDY    44  18  35 CALM      30.32S
MONARCH PASS   FAIR      39  19  45 W18       30.51S
SALIDA         FAIR      65  17  16 N7        30.29F
SUNLIGHT       CLOUDY    36  23  60 W3        30.41S
WILKERSON PASS CLOUDY    41  21  45 W3        30.40S
$$

COZ069>075-212000-
...SAN LUIS VALLEY/SANGRE DE CRISTO MOUNTAINS...

CITY           SKY/WX    TMP DP  RH WIND       PRES   REMARKS
ALAMOSA        FAIR      60  23  24 S7        30.23F
DEL NORTE      FAIR      59  25  27 SE9       30.24F
LA VETA PASS   FAIR      52  21  30 S14       30.45S
SAGUACHE       FAIR      61  21  21 S6        30.23F
$$

COZ035-036-038>040-212000-
...NORTHERN COLORADO FRONT RANGE...

CITY           SKY/WX    TMP DP  RH WIND       PRES   REMARKS
DENVER INTL AP FAIR      63  34  33 SE12G17   30.18F
DMNS CITY PARK   N/A     65  30  27 NE7G15    30.17F
AURORA         MOSUNNY   64  31  29 SW3       30.18F
FRONT RANGE AP PTSUNNY   64  36  34 NE6G18    30.19F
ERIE MUNI ARPT FAIR      64  29  26 CALM      30.17F
BOULDER MUN AP FAIR      63  34  34 E7        30.17F
CENTENNIAL     FAIR      62  31  31 VRB6      30.18F
BROOMFIELD     PTSUNNY   63  30  29 CALM      30.20F
FORT COLLINS   FAIR      64  36  35 E9        30.19F
LONGMONT       FAIR      67  36  32 E7        30.20S
$$

COZ041-046-047-076>085-087-088-212000-
...PIKES PEAK/PALMER DIVIDE AND SOUTHERN FOOTHILLS...

CITY           SKY/WX    TMP DP  RH WIND       PRES   REMARKS
COLO. SPRINGS  PTSUNNY   61  33  35 VRB5      30.21F
A. F. ACADEMY  PTSUNNY   58  30  33 CALM      30.20F
SCHRIEVER AFB  FAIR      60  33  36 S6        30.21F
CHEYENNE MTN   PTSUNNY   55  33  43 SE8       30.18F
ELLICOTT       FAIR     N/A N/A N/A VRB5      30.19F
FALCON         PTSUNNY   58  29  33 E7        30.23F
FORT CARSON    FAIR      63  35  35 E3        30.19F
LIMON          PTSUNNY   61  36  39 E8        30.19F
MONUMENT HILL  FAIR      55  30  38 CALM      30.25S
CANON CITY     NOT AVBL
WALSENBURG     FAIR      64  37  36 CALM      30.18F
TRINIDAD       FAIR      67  33  28 E8        30.16F
$$

COZ042>045-048>051-090-091-212000-
...NORTHEAST COLORADO...

CITY           SKY/WX    TMP DP  RH WIND       PRES   REMARKS
GREELEY ARPT   FAIR      62  39  42 NE3       30.19F
AKRON          FAIR      61  38  42 CALM      30.18F
BURLINGTON     PTSUNNY   68  43  40 SW8       30.16F
WRAY           PTSUNNY   66  37  34 CALM      30.16F
YUMA           FAIR      63  23  22 NW7       30.17F
STERLING       FAIR      64  41  42 SW5       30.16F
HOLYOKE        NOT AVBL
FORT MORGAN    CLOUDY    65  34  32 N5        30.19S
$$

COZ086-089-092>099-212000-
...SOUTHEAST COLORADO...

CITY           SKY/WX    TMP DP  RH WIND       PRES   REMARKS
PUEBLO         FAIR      68  36  30 VRB3      30.14F
LA JUNTA       FAIR      69  40  34 NW7       30.14F
LAMAR          FAIR      70  40  33 NW6       30.10F
SPRINGFIELD      N/A     70  49  47 S12G22    30.13F
$$




USA.gov is the U.S. government's official web portal to all federal, state and local government web resources and services.